Location: Unspecified
(0.0000°N, 0.0000°E)
Time: 15:37:35
(UTC+01:00)

Altair - All Passes

Search period start: 31 January 2015 00:00
Search period end: 10 February 2015 00:00
Orbit: 1501 x 1683 km, 47.2° (Epoch: 30 January)

Date Brightness Start Highest point End Pass type
(mag) Time Alt. Az. Time Alt. Az. Time Alt. Az.
31 Jan - 00:34:58 10° W 00:42:40 24° NW 00:50:03 10° N visible
31 Jan - 09:15:06 10° N 09:23:08 31° NE 09:31:11 10° ESE daylight
31 Jan - 11:18:43 10° NW 11:27:53 54° SW 11:36:46 10° SSE daylight
31 Jan - 20:04:23 10° SSE 20:06:45 11° SE 20:10:03 10° ESE visible
31 Jan - 22:02:42 10° SSW 22:12:21 67° SE 22:22:21 10° NE visible
01 Feb - 00:09:18 10° W 00:17:24 27° NW 00:25:16 10° N visible
01 Feb - 08:50:16 10° N 08:57:55 28° NE 09:05:40 10° ESE daylight
01 Feb - 10:53:25 10° NW 11:02:45 61° SW 11:11:47 10° SSE daylight
01 Feb - 21:37:41 10° SSW 21:47:11 60° SE 21:57:03 10° NE visible
01 Feb - 23:43:42 10° WSW 23:52:08 30° NW 00:00:27 10° N visible
02 Feb - 08:25:29 10° N 08:32:41 25° NE 08:40:05 10° E daylight
02 Feb - 10:28:09 10° NW 10:37:37 68° SW 10:46:47 10° SSE daylight
02 Feb - 12:40:28 10° WSW 12:43:03 11° SW 12:44:46 10° SSW daylight
02 Feb - 21:12:41 10° SSW 21:22:01 54° SE 21:31:43 10° NE visible
02 Feb - 23:18:11 10° WSW 23:26:54 34° NW 23:35:34 10° NNE visible
03 Feb - 08:00:45 10° N 08:07:26 22° NE 08:14:25 10° E daylight
03 Feb - 10:02:55 10° NW 10:12:29 76° SW 10:21:44 10° SE daylight
03 Feb - 12:13:31 10° WSW 12:17:45 13° SW 12:21:13 10° SSW daylight
03 Feb - 20:47:44 10° SSW 20:56:50 48° SE 21:06:21 10° ENE visible
03 Feb - 22:52:44 10° WSW 23:01:40 38° NW 23:10:39 10° NNE visible
04 Feb - 07:36:06 10° N 07:42:09 19° NE 07:48:39 10° E daylight
04 Feb - 09:37:42 10° NW 09:47:21 85° SW 09:56:40 10° SE daylight
04 Feb - 11:47:11 10° W 11:52:29 15° SW 11:57:04 10° SSW daylight
04 Feb - 20:22:48 10° SSW 20:31:39 43° SE 20:40:56 10° ENE visible
04 Feb - 22:27:20 10° WSW 22:36:27 43° NW 22:45:42 10° NNE visible
05 Feb - 07:11:32 10° N 07:16:52 17° NE 07:22:44 10° E daylight
05 Feb - 09:12:32 10° NW 09:22:13 87° NE 09:31:34 10° SE daylight
05 Feb - 11:21:07 10° W 11:27:13 18° SW 11:32:41 10° S daylight
05 Feb - 19:57:55 10° SSW 20:06:28 38° SE 20:15:28 10° ENE visible
05 Feb - 22:01:58 10° WSW 22:11:15 48° NW 22:20:42 10° NNE visible
06 Feb - 06:47:08 10° NNE 06:51:34 14° NE 06:56:39 10° ENE visible
06 Feb - 08:47:23 10° NW 08:57:04 78° NE 09:06:26 10° SE daylight
06 Feb - 10:55:13 10° W 11:01:59 20° SW 11:08:09 10° S daylight
06 Feb - 19:33:05 10° SSW 19:41:16 33° SE 19:49:56 10° ENE visible
06 Feb - 21:36:40 10° SW 21:46:03 53° NW 21:55:41 10° NNE visible
07 Feb - 06:23:00 10° NNE 06:26:14 12° NE 06:30:15 10° ENE visible
07 Feb - 08:22:16 10° NNW 08:31:57 71° NE 08:41:15 10° SE daylight
07 Feb - 10:29:27 10° W 10:36:45 23° SW 10:43:31 10° S daylight
07 Feb - 19:08:17 10° S 19:16:04 30° SE 19:24:22 10° ENE daylight
07 Feb - 21:11:24 10° SW 21:20:52 60° NW 21:30:38 10° NNE visible
08 Feb - 05:59:39 10° NNE 06:00:53 10° NE 06:03:02 10° NE visible
08 Feb - 07:57:11 10° NNW 08:06:47 63° NE 08:16:04 10° SE daylight
08 Feb - 10:03:45 10° WNW 10:11:33 27° SW 10:18:50 10° S daylight
08 Feb - 18:43:32 10° S 18:50:51 26° SE 18:58:43 10° ENE daylight
08 Feb - 20:46:10 10° SW 20:55:42 66° NW 21:05:33 10° NNE visible
08 Feb - 22:57:59 10° WNW 23:01:34 12° NW 23:04:16 10° NNW visible
09 Feb - 07:32:07 10° NNW 07:41:38 56° NE 07:50:50 10° SE daylight
09 Feb - 09:38:09 10° WNW 09:46:21 30° SW 09:54:04 10° S daylight
09 Feb - 18:18:52 10° S 18:25:37 23° SE 18:32:59 10° E daylight
09 Feb - 20:20:58 10° SW 20:30:32 74° NW 20:40:27 10° NNE visible
09 Feb - 22:31:21 10° WNW 22:36:12 14° NW 22:40:19 10° NNW visible
